SV2MJJ Weather Reports


Display with metric or nautical units.
time (UTC)temp
F
wind
direction
speed
MPH
gust
MPH
rain 1hr
in
rain 24hr
in
rain mn
in
humidity
%
barometer
mb
20210922214103 62 43 5.0 10.0 0.00 0.00 0.00 50 1014.3
20210922213537 62 51 2.0 5.0 0.00 0.00 0.00 50 1014.2
20210922213041 62 51 1.0 7.0 0.00 0.00 0.00 50 1014.2
20210922212539 62 51 1.0 7.0 0.00 0.00 0.00 51 1014.2
20210922212045 62 49 0.0 4.0 0.00 0.00 0.00 51 1014.2
20210922211550 62 50 0.0 0.0 0.00 0.00 0.00 51 1014.3
20210922211051 62 50 0.0 0.0 0.00 0.00 0.00 51 1014.2
20210922210558 62 49 0.0 4.0 0.00 0.00 0.00 51 1014.1
20210922210053 62 50 0.0 4.0 0.00 0.00 0.00 50 1014.1
20210922205537 62 49 0.0 0.0 0.00 0.00 0.00 50 1014.1
20210922205045 62 49 0.0 0.0 0.00 0.00 0.00 51 1014.0
20210922204540 62 49 0.0 0.0 0.00 0.00 0.00 50 1014.1
20210922204048 62 50 0.0 1.0 0.00 0.00 0.00 50 1014.0
20210922203535 62 50 0.0 1.0 0.00 0.00 0.00 50 1014.0
20210922203101 62 49 0.0 2.0 0.00 0.00 0.00 50 1014.0
20210922202551 63 50 0.0 3.0 0.00 0.00 0.00 50 1014.0
20210922202035 63 49 0.0 7.0 0.00 0.00 0.00 50 1014.0
20210922201540 63 49 2.0 7.0 0.00 0.00 0.00 49 1014.1
20210922201103 63 46 4.0 7.0 0.00 0.00 0.00 49 1014.0
20210922200539 63 41 0.0 6.0 0.00 0.00 0.00 50 1014.0
20210922200042 63 41 2.0 7.0 0.00 0.00 0.00 49 1014.0
20210922195539 63 40 3.0 7.0 0.00 0.00 0.00 49 1013.9
20210922195104 63 40 4.0 6.0 0.00 0.00 0.00 49 1013.9
20210922194541 63 37 1.0 6.0 0.00 0.00 0.00 49 1013.8
20210922194049 63 36 2.0 7.0 0.00 0.00 0.00 49 1013.7
20210922193544 63 36 5.0 11.0 0.00 0.00 0.00 49 1013.7
20210922193039 63 39 5.0 11.0 0.00 0.00 0.00 49 1013.7
20210922192541 63 38 3.0 7.0 0.00 0.00 0.00 49 1013.9
20210922192101 63 38 3.0 10.0 0.00 0.00 0.00 49 1013.8
20210922191538 63 38 3.0 15.0 0.00 0.00 0.00 49 1013.8
20210922191043 64 40 6.0 15.0 0.00 0.00 0.00 49 1013.7
20210922190546 64 42 7.0 13.0 0.00 0.00 0.00 49 1013.8
20210922190042 64 46 4.0 14.0 0.00 0.00 0.00 50 1013.8
20210922185549 64 42 7.0 11.0 0.00 0.00 0.00 51 1013.7
20210922185050 64 39 6.0 10.0 0.00 0.00 0.00 51 1013.7
20210922184554 64 44 3.0 10.0 0.00 0.00 0.00 51 1013.7
20210922184051 64 47 5.0 11.0 0.00 0.00 0.00 50 1013.7
20210922183537 64 42 5.0 13.0 0.00 0.00 0.00 50 1013.7
20210922183041 64 43 7.0 13.0 0.00 0.00 0.00 51 1013.7
20210922182538 64 132 5.0 8.0 0.00 0.00 0.00 50 1013.8
20210922182046 64 171 2.0 7.0 0.00 0.00 0.00 50 1013.7
20210922181551 64 184 0.0 5.0 0.00 0.00 0.00 50 1013.6
20210922181100 64 184 0.0 5.0 0.00 0.00 0.00 50 1013.4
20210922180539 64 184 0.0 5.0 0.00 0.00 0.00 51 1013.4
20210922180043 64 184 1.0 5.0 0.00 0.00 0.00 53 1013.4
20210922175551 64 186 1.0 4.0 0.00 0.00 0.00 53 1013.4
20210922175048 64 188 0.0 1.0 0.00 0.00 0.00 52 1013.2
20210922174554 64 188 0.0 1.0 0.00 0.00 0.00 52 1013.0
20210922174057 64 187 0.0 1.0 0.00 0.00 0.00 52 1012.9
20210922173556 64 187 0.0 1.0 0.00 0.00 0.00 52 1012.9
20210922173034 64 188 0.0 1.0 0.00 0.00 0.00 52 1012.8
20210922172536 64 188 0.0 5.0 0.00 0.00 0.00 52 1012.7
20210922172045 64 188 1.0 7.0 0.00 0.00 0.00 52 1012.5
20210922171540 65 188 4.0 7.0 0.00 0.00 0.00 51 1012.4
20210922171040 65 188 3.0 6.0 0.00 0.00 0.00 52 1012.5
20210922170546 65 188 2.0 7.0 0.00 0.00 0.00 52 1012.5
20210922170054 65 188 2.0 7.0 0.00 0.00 0.00 52 1012.5
20210922165552 65 188 2.0 6.0 0.00 0.00 0.00 51 1012.6
20210922165054 65 188 2.0 6.0 0.00 0.00 0.00 52 1012.6
20210922164557 65 188 1.0 8.0 0.00 0.00 0.00 52 1012.5
20210922164059 65 188 5.0 8.0 0.00 0.00 0.00 51 1012.6
20210922163547 65 187 4.0 9.0 0.00 0.00 0.00 52 1012.4
20210922163046 65 186 6.0 9.0 0.00 0.00 0.00 52 1012.5
20210922162534 65 184 4.0 9.0 0.00 0.00 0.00 52 1012.6
20210922162055 65 184 7.0 9.0 0.00 0.00 0.00 51 1012.6
20210922161552 66 181 5.0 9.0 0.00 0.00 0.00 51 1012.6
20210922161039 66 178 5.0 9.0 0.00 0.00 0.00 51 1012.5
20210922160546 66 176 3.0 10.0 0.00 0.00 0.00 51 1012.6
20210922160040 66 174 6.0 10.0 0.00 0.00 0.00 51 1012.7
20210922155547 66 168 5.0 10.0 0.00 0.00 0.00 50 1012.6
20210922155052 67 165 7.0 10.0 0.00 0.00 0.00 50 1012.5
20210922154546 67 160 5.0 10.0 0.00 0.00 0.00 50 1012.6
20210922154035 67 156 6.0 10.0 0.00 0.00 0.00 50 1012.5
20210922153542 67 150 3.0 8.0 0.00 0.00 0.00 50 1012.6
20210922153036 68 149 3.0 8.0 0.00 0.00 0.00 49 1012.6
20210922152544 68 148 1.0 8.0 0.00 0.00 0.00 49 1012.7
20210922152051 68 147 0.0 9.0 0.00 0.00 0.00 49 1012.7
20210922151554 68 144 0.0 7.0 0.00 0.00 0.00 48 1012.6
20210922151047 68 144 0.0 5.0 0.00 0.00 0.00 48 1012.6
20210922150535 69 146 1.0 5.0 0.00 0.00 0.00 48 1012.6
20210922150045 69 146 0.0 7.0 0.00 0.00 0.00 48 1012.5
20210922145540 69 146 1.0 8.0 0.00 0.00 0.00 48 1012.5
20210922145047 69 149 0.0 8.0 0.00 0.00 0.00 49 1012.5
20210922144553 69 149 1.0 6.0 0.00 0.00 0.00 48 1012.5
20210922144048 69 149 2.0 11.0 0.00 0.00 0.00 49 1012.4
20210922143551 69 151 5.0 11.0 0.00 0.00 0.00 48 1012.3
20210922143034 70 156 3.0 10.0 0.00 0.00 0.00 48 1012.2
20210922142602 70 157 0.0 16.0 0.00 0.00 0.00 48 1012.1
20210922142037 70 157 5.0 16.0 0.00 0.00 0.00 48 1012.1
20210922141541 70 157 4.0 13.0 0.00 0.00 0.00 48 1012.1
20210922141051 71 171 6.0 13.0 0.00 0.00 0.00 48 1012.0
20210922140547 71 150 2.0 10.0 0.00 0.00 0.00 48 1012.1
20210922140054 71 152 3.0 8.0 0.00 0.00 0.00 48 1012.0
20210922135541 71 152 1.0 8.0 0.00 0.00 0.00 49 1012.0
20210922135038 72 154 1.0 8.0 0.00 0.00 0.00 49 1011.9
20210922134544 72 155 3.0 9.0 0.00 0.00 0.00 50 1012.0
20210922134050 72 155 6.0 9.0 0.00 0.00 0.00 49 1012.1
20210922133557 72 155 1.0 8.0 0.00 0.00 0.00 49 1012.1
20210922133034 73 159 1.0 7.0 0.00 0.00 0.00 48 1011.9
20210922132542 73 161 2.0 7.0 0.00 0.00 0.00 48 1012.0
20210922132049 73 165 0.0 5.0 0.00 0.00 0.00 49 1012.0
20210922131541 73 167 0.0 7.0 0.00 0.00 0.00 49 1012.1
20210922131050 73 167 0.0 7.0 0.00 0.00 0.00 49 1012.1
20210922130559 73 167 4.0 7.0 0.00 0.00 0.00 48 1012.0
20210922130036 74 163 0.0 2.0 0.00 0.00 0.00 48 1012.0
20210922125540 74 163 0.0 5.0 0.00 0.00 0.00 48 1012.1
20210922125043 74 163 0.0 6.0 0.00 0.00 0.00 48 1012.2
20210922124544 74 163 1.0 6.0 0.00 0.00 0.00 47 1012.3
20210922124047 74 163 0.0 2.0 0.00 0.00 0.00 48 1012.4
20210922123554 74 163 0.0 7.0 0.00 0.00 0.00 48 1012.4
20210922123104 74 163 1.0 7.0 0.00 0.00 0.00 48 1012.4
20210922122542 74 161 0.0 2.0 0.00 0.00 0.00 48 1012.4
20210922122045 74 161 0.0 3.0 0.00 0.00 0.00 48 1012.4
20210922121551 74 161 0.0 8.0 0.00 0.00 0.00 48 1012.5
20210922121056 74 161 2.0 9.0 0.00 0.00 0.00 48 1012.5
20210922120547 74 165 1.0 10.0 0.00 0.00 0.00 48 1012.5
20210922120034 74 162 1.0 9.0 0.00 0.00 0.00 48 1012.6
20210922115541 74 159 1.0 5.0 0.00 0.00 0.00 47 1012.6
20210922115034 74 159 0.0 10.0 0.00 0.00 0.00 47 1012.8
20210922114543 75 151 3.0 8.0 0.00 0.00 0.00 46 1012.8
20210922114046 75 153 2.0 7.0 0.00 0.00 0.00 46 1013.0
20210922113539 75 161 0.0 7.0 0.00 0.00 0.00 46 1012.9
20210922113045 75 161 0.0 5.0 0.00 0.00 0.00 48 1013.0
20210922112545 74 161 1.0 9.0 0.00 0.00 0.00 47 1013.3
20210922112051 74 165 4.0 10.0 0.00 0.00 0.00 47 1013.3
20210922111544 74 159 0.0 6.0 0.00 0.00 0.00 48 1013.2
20210922111035 74 159 0.0 6.0 0.00 0.00 0.00 49 1013.3
20210922110543 73 159 0.0 7.0 0.00 0.00 0.00 49 1013.3
20210922110045 73 159 1.0 7.0 0.00 0.00 0.00 49 1013.3
20210922105553 73 159 0.0 8.0 0.00 0.00 0.00 49 1013.4
20210922105045 73 159 1.0 10.0 0.00 0.00 0.00 49 1013.4
20210922104548 73 159 2.0 11.0 0.00 0.00 0.00 49 1013.4
20210922104058 73 155 0.0 8.0 0.00 0.00 0.00 49 1013.4
20210922103538 73 173 0.0 5.0 0.00 0.00 0.00 49 1013.5
20210922103045 72 173 1.0 8.0 0.00 0.00 0.00 50 1013.8
20210922102548 72 174 2.0 8.0 0.00 0.00 0.00 51 1013.8
20210922102049 72 182 3.0 8.0 0.00 0.00 0.00 51 1013.9
20210922101535 72 184 3.0 10.0 0.00 0.00 0.00 51 1013.9
20210922101041 72 182 5.0 10.0 0.00 0.00 0.00 50 1014.0
20210922100535 72 174 0.0 6.0 0.00 0.00 0.00 52 1014.1
20210922100045 73 177 1.0 8.0 0.00 0.00 0.00 51 1014.1
20210922095537 73 178 3.0 8.0 0.00 0.00 0.00 51 1014.2
20210922095100 72 176 0.0 7.0 0.00 0.00 0.00 53 1014.3
20210922094540 72 178 0.0 11.0 0.00 0.00 0.00 54 1014.4
20210922094045 72 176 3.0 11.0 0.00 0.00 0.00 53 1014.6
20210922093538 72 164 0.0 5.0 0.00 0.00 0.00 53 1014.5
20210922093046 72 167 2.0 5.0 0.00 0.00 0.00 53 1014.8
20210922092554 72 179 0.0 4.0 0.00 0.00 0.00 53 1014.8
20210922092057 72 179 1.0 4.0 0.00 0.00 0.00 54 1015.0
20210922091535 71 180 0.0 5.0 0.00 0.00 0.00 55 1014.9
20210922091043 71 180 0.0 5.0 0.00 0.00 0.00 55 1015.1
20210922090548 71 180 0.0 7.0 0.00 0.00 0.00 55 1015.2
20210922090044 70 181 2.0 9.0 0.00 0.00 0.00 56 1015.1
20210922085550 70 181 3.0 9.0 0.00 0.00 0.00 55 1015.1
20210922085035 70 180 0.0 5.0 0.00 0.00 0.00 55 1015.2
20210922084555 70 181 0.0 6.0 0.00 0.00 0.00 56 1015.5
20210922084034 70 186 0.0 3.0 0.00 0.00 0.00 56 1015.5
20210922083541 69 187 0.0 9.0 0.00 0.00 0.00 57 1015.6
20210922083037 69 187 2.0 9.0 0.00 0.00 0.00 57 1015.8
20210922082545 68 184 0.0 5.0 0.00 0.00 0.00 57 1015.8
20210922082050 68 184 0.0 7.0 0.00 0.00 0.00 57 1015.8
20210922081600 68 185 2.0 7.0 0.00 0.00 0.00 58 1015.8
20210922081053 68 189 0.0 7.0 0.00 0.00 0.00 59 1015.8
20210922080542 67 190 4.0 7.0 0.00 0.00 0.00 59 1015.9
20210922080051 67 188 4.0 8.0 0.00 0.00 0.00 59 1016.0
20210922075543 67 188 0.0 8.0 0.00 0.00 0.00 59 1015.9
20210922075051 67 187 5.0 9.0 0.00 0.00 0.00 60 1016.0
20210922074557 66 185 3.0 9.0 0.00 0.00 0.00 60 1016.1
20210922074100 66 184 2.0 8.0 0.00 0.00 0.00 61 1016.2
20210922073540 66 184 0.0 8.0 0.00 0.00 0.00 61 1016.2
20210922073048 66 184 4.0 9.0 0.00 0.00 0.00 61 1016.2
20210922072556 66 182 4.0 9.0 0.00 0.00 0.00 61 1016.4
20210922072051 66 182 2.0 8.0 0.00 0.00 0.00 61 1016.4
20210922071539 66 182 5.0 8.0 0.00 0.00 0.00 60 1016.5
20210922071040 66 181 2.0 4.0 0.00 0.00 0.00 60 1016.5
20210922070544 65 181 0.0 10.0 0.00 0.00 0.00 61 1016.5
20210922070051 65 186 6.0 10.0 0.00 0.00 0.00 60 1016.5
20210922065559 65 181 1.0 5.0 0.00 0.00 0.00 61 1016.5
20210922065039 65 182 1.0 4.0 0.00 0.00 0.00 61 1016.4
20210922064537 65 182 0.0 8.0 0.00 0.00 0.00 61 1016.4
20210922064052 65 182 3.0 8.0 0.00 0.00 0.00 61 1016.5
20210922063548 65 189 2.0 7.0 0.00 0.00 0.00 62 1016.5
20210922063057 65 189 1.0 5.0 0.00 0.00 0.00 63 1016.4
20210922062549 64 194 1.0 7.0 0.00 0.00 0.00 64 1016.4
20210922062041 64 196 5.0 7.0 0.00 0.00 0.00 64 1016.5
20210922061556 64 198 1.0 5.0 0.00 0.00 0.00 65 1016.5
20210922061100 64 198 327.0 6.0 0.00 0.00 0.00 65 1016.5
20210922055545 63 199 3.0 7.0 0.00 0.00 0.00 67 1016.5
20210922055043 63 199 2.0 7.0 0.00 0.00 0.00 67 1016.6
20210922054548 63 200 4.0 7.0 0.00 0.00 0.00 67 1016.6
20210922054055 63 200 2.0 7.0 0.00 0.00 0.00 67 1016.7
20210922053557 63 200 5.0 6.0 0.00 0.00 0.00 67 1016.4
20210922053046 63 200 0.0 0.0 0.00 0.00 0.00 67 1016.8
20210922052554 63 200 0.0 3.0 0.00 0.00 0.00 67 1016.7
20210922052034 62 200 0.0 3.0 0.00 0.00 0.00 67 1016.6
20210922051602 62 200 0.0 7.0 0.00 0.00 0.00 67 1016.6
20210922051101 62 201 1.0 7.0 0.00 0.00 0.00 67 1016.5
20210922050552 62 201 3.0 6.0 0.00 0.00 0.00 67 1016.4
20210922050038 62 201 3.0 6.0 0.00 0.00 0.00 68 1016.4
20210922045537 62 201 3.0 5.0 0.00 0.00 0.00 68 1016.3
20210922045042 62 201 1.0 6.0 0.00 0.00 0.00 68 1016.3
20210922044545 62 201 3.0 7.0 0.00 0.00 0.00 68 1016.3
20210922044044 62 201 5.0 9.0 0.00 0.00 0.00 68 1016.2
20210922043543 62 200 5.0 9.0 0.00 0.00 0.00 68 1016.2
20210922043047 62 199 4.0 8.0 0.00 0.00 0.00 67 1016.1
20210922042556 63 200 3.0 6.0 0.00 0.00 0.00 67 1016.2
20210922042101 63 200 1.0 7.0 0.00 0.00 0.00 67 1016.1
20210922041554 63 200 2.0 7.0 0.00 0.00 0.00 67 1016.0
20210922041041 63 200 3.0 5.0 0.00 0.00 0.00 67 1015.9
20210922040541 63 200 0.0 3.0 0.00 0.00 0.00 66 1015.9
20210922040046 63 200 0.0 3.0 0.00 0.00 0.00 66 1015.9
20210922035552 63 200 0.0 0.0 0.00 0.00 0.00 66 1015.9
20210922035059 64 200 0.0 1.0 0.00 0.00 0.00 66 1016.0
20210922034536 64 200 0.0 3.0 0.00 0.00 0.00 66 1016.1
20210922034037 64 200 0.0 2.0 0.00 0.00 0.00 66 1016.1
20210922033603 64 200 0.0 5.0 0.00 0.00 0.00 66 1016.1
20210922033037 64 200 2.0 7.0 0.00 0.00 0.00 66 1016.2
20210922032540 64 200 3.0 9.0 0.00 0.00 0.00 66 1016.2
20210922032045 64 200 3.0 9.0 0.00 0.00 0.00 66 1016.3
20210922031544 64 201 6.0 10.0 0.00 0.00 0.00 66 1016.3
20210922031050 64 201 7.0 10.0 0.00 0.00 0.00 65 1016.3
20210922030551 64 196 5.0 13.0 0.00 0.00 0.00 65 1016.4
20210922030055 64 194 8.0 13.0 0.00 0.00 0.00 64 1016.4
20210922025548 65 200 9.0 13.0 0.00 0.00 0.00 64 1016.4
20210922025050 65 231 7.0 12.0 0.00 0.00 0.00 63 1016.4
20210922024556 65 248 5.0 8.0 0.00 0.00 0.00 63 1016.4
20210922024100 65 250 5.0 8.0 0.00 0.00 0.00 63 1016.4
20210922023535 65 253 5.0 8.0 0.00 0.00 0.00 63 1016.4
20210922023043 66 255 3.0 9.0 0.00 0.00 0.00 62 1016.5
20210922022538 66 259 4.0 9.0 0.00 0.00 0.00 61 1016.5
20210922022045 66 267 2.0 8.0 0.00 0.00 0.00 61 1016.4
20210922021550 66 267 0.0 8.0 0.00 0.00 0.00 61 1016.5
20210922021056 66 267 3.0 8.0 0.00 0.00 0.00 61 1016.3
20210922020553 66 267 3.0 8.0 0.00 0.00 0.00 61 1016.3
20210922020054 66 267 3.0 8.0 0.00 0.00 0.00 61 1016.4
20210922015600 66 266 3.0 8.0 0.00 0.00 0.00 61 1016.3
20210922015035 66 265 2.0 9.0 0.00 0.00 0.00 61 1016.3
20210922014538 66 265 5.0 11.0 0.00 0.00 0.00 61 1016.2
20210922014042 66 265 4.0 11.0 0.00 0.00 0.00 61 1016.2
20210922013552 67 265 7.0 10.0 0.00 0.00 0.00 60 1016.2
20210922013040 67 261 5.0 8.0 0.00 0.00 0.00 59 1016.2
20210922012543 67 260 2.0 9.0 0.00 0.00 0.00 59 1016.1
20210922012047 67 261 5.0 9.0 0.00 0.00 0.00 59 1016.2
20210922011543 67 263 6.0 9.0 0.00 0.00 0.00 59 1016.2
20210922011047 67 263 4.0 12.0 0.00 0.00 0.00 60 1016.2
20210922010553 66 263 3.0 12.0 0.00 0.00 0.00 60 1016.3
20210922010100 66 263 8.0 12.0 0.00 0.00 0.00 62 1016.4
20210922005553 66 263 8.0 11.0 0.00 0.00 0.00 61 1016.5
20210922005050 66 265 6.0 13.0 0.00 0.00 0.00 61 1016.6
20210922004534 66 265 8.0 13.0 0.00 0.00 0.00 61 1016.6
20210922004056 66 252 8.0 11.0 0.00 0.00 0.00 61 1016.6
20210922003553 67 236 3.0 9.0 0.00 0.00 0.00 60 1016.6
20210922003040 66 235 4.0 9.0 0.00 0.00 0.00 60 1016.7
20210922002547 66 231 4.0 9.0 0.00 0.00 0.00 61 1016.8
20210922002043 66 230 5.0 9.0 0.00 0.00 0.00 61 1016.9
20210922001553 66 223 5.0 8.0 0.00 0.00 0.00 60 1017.0
20210922001100 67 214 4.0 8.0 0.00 0.00 0.00 60 1017.0
20210922000607 67 211 4.0 7.0 0.00 0.00 0.00 58 1017.0
20210922000038 68 204 4.0 6.0 0.00 0.00 0.00 58 1016.9
20210921235544 68 199 4.0 6.0 0.00 0.00 0.00 57 1017.0
20210921235054 68 198 1.0 4.0 0.00 0.00 0.00 57 1017.1
20210921234534 68 198 0.0 0.0 0.00 0.00 0.00 56 1017.0
20210921234041 68 198 0.0 4.0 0.00 0.00 0.00 56 1017.1
20210921233550 68 198 0.0 4.0 0.00 0.00 0.00 56 1017.0
20210921233045 68 198 1.0 6.0 0.00 0.00 0.00 57 1016.9
20210921232552 68 198 4.0 8.0 0.00 0.00 0.00 57 1016.9
20210921232039 68 198 3.0 9.0 0.00 0.00 0.00 57 1017.0
20210921231601 68 198 4.0 9.0 0.00 0.00 0.00 57 1017.0
20210921231040 68 198 6.0 10.0 0.00 0.00 0.00 57 1016.7
20210921230546 68 197 6.0 10.0 0.00 0.00 0.00 56 1016.7
20210921230052 69 199 6.0 10.0 0.00 0.00 0.00 56 1016.8
20210921225548 69 203 5.0 9.0 0.00 0.00 0.00 55 1016.7
20210921225050 69 205 4.0 9.0 0.00 0.00 0.00 55 1016.5
20210921224555 70 205 6.0 10.0 0.00 0.00 0.00 54 1016.5
20210921224046 70 205 6.0 10.0 0.00 0.00 0.00 53 1016.4
20210921223535 70 208 5.0 8.0 0.00 0.00 0.00 53 1016.4
20210921223042 70 208 4.0 8.0 0.00 0.00 0.00 53 1016.3
20210921222537 71 208 5.0 8.0 0.00 0.00 0.00 52 1016.2
20210921222047 71 208 5.0 8.0 0.00 0.00 0.00 52 1016.2
20210921221534 71 208 3.0 6.0 0.00 0.00 0.00 53 1016.2
20210921221054 71 208 0.0 3.0 0.00 0.00 0.00 53 1016.1
20210921220547 71 208 0.0 3.0 0.00 0.00 0.00 52 1016.1
20210921220052 71 208 0.0 7.0 0.00 0.00 0.00 52 1016.0
20210921215540 71 208 3.0 7.0 0.00 0.00 0.00 51 1016.0
20210921215101 71 208 4.0 7.0 0.00 0.00 0.00 51 1015.9
20210921214540 71 207 1.0 10.0 0.00 0.00 0.00 52 1016.1